Flag for Canada Weather past 2 weeks in Nelson, British Columbia, Canada

Now
39 °F

Chilly.


Feels Like: 39 °F
Forecast: 22 / 37 °F
Wind: 1 mph from Southeast

Location: Nelson

Current Time: Mar 6, 2015 at 6:30:53 PM

Latest Report: Mar 6, 2015 at 6:00 PM


Visibility: N/A

Pressure: 30.37 "Hg

Humidity: 65%

Dew point: 28 °F

Location of NelsonLocation

Historic Weather in Nelson — Graph

°F

Nelson temperature yesterday

Maximum temperature yesterday: 45 °F (at 3:00 PM)
Minimum temperature yesterday: 22 °F (at 5:00 AM)
Average temperature yesterday: 32 °F

Past Weeks' High & Low Weather Summary

 TemperatureHumidityPressure
High52 °F (Feb 25, 2:00 PM)96% (Feb 21, 2:00 AM)30.57 "Hg (Feb 21, 2:00 AM)
Low18 °F (Mar 4, 6:00 AM)26% (Mar 4, 2:00 PM)29.92 "Hg (Feb 27, 2:00 PM)
Average34 °F65%30.26 "Hg
* Reported Feb 19 5:00 PM — Mar 6 5:00 PM, Nelson, Weather by CustomWeather, © 2015

Note: Actual official high and low records may vary slightly from our data, if they occured in-between our weather recording intervals... More about our weather records

Advertising

Nelson weather history for previous 24 hours

 ConditionsComfort  
Time TempWeatherWind HumidityBarometerVisibility
5:00 PM
Fri, Mar 6
43 °FQuite cool.3 mph60%30.36 "HgN/A
4:00 PM45 °FCool.3 mph54%30.35 "HgN/A
3:00 PM49 °FCool.7 mph44%30.35 "HgN/A
2:00 PM46 °FCool.5 mph51%30.37 "HgN/A
1:00 PM49 °FCool.6 mph39%30.38 "HgN/A
12:00 PM48 °FCool.3 mph40%30.40 "HgN/A
11:00 AM43 °FQuite cool.7 mph49%30.43 "HgN/A
10:00 AM42 °FQuite cool.3 mph58%30.45 "HgN/A
9:00 AM37 °FChilly.1 mph66%30.46 "HgN/A
8:00 AM31 °FChilly.1 mph79%30.47 "HgN/A
7:00 AM29 °FChilly.3 mph83%30.45 "HgN/A
6:00 AM30 °FChilly.9 mph82%30.43 "HgN/A
5:00 AM30 °FChilly.7 mph77%30.42 "HgN/A
4:00 AM29 °FChilly.3 mph85%30.41 "HgN/A
3:00 AM29 °FChilly.5 mph84%30.42 "HgN/A
2:00 AM27 °FChilly.2 mph82%30.42 "HgN/A
1:00 AM28 °FChilly.1 mph83%30.41 "HgN/A
12:00 AM31 °FChilly.2 mph80%30.40 "HgN/A
11:00 PM
Thu, Mar 5
29 °FChilly.2 mph77%30.40 "HgN/A
10:00 PM29 °FChilly.2 mph75%30.41 "HgN/A
9:00 PM31 °FChilly.1 mph77%30.41 "HgN/A
8:00 PM33 °FChilly.5 mph64%30.39 "HgN/A
7:00 PM35 °FChilly.2 mph60%30.38 "HgN/A
6:00 PM38 °FChilly.2 mph53%30.38 "HgN/A
Weather by CustomWeather, © 2015

See weather overviewHow to use our weather pages